Location: Bieg
(49.3499°N, 10.3835°E)
Time: 12:22:08
(UTC+00:00)

Okean 2 - Pass Details

Date: 23 May 2024
Orbit: 541 x 553 km, 82.5° (Epoch: 21 June)

Event Time Altitude Azimuth Distance (km) Brightness Sun altitude
Exits shadow 00:51:07 36° 198° (SSW) 863 3.8 -16.8°
Maximum altitude 00:52:38 80° 279° (W) 557 3.2 -16.7°
Drops below altitude 10° 00:56:38 10° 8° (N) 1,817 7.1 -16.5°
Sets 00:58:48 0° 9° (N) 2,715 8.4 -16.3°
